Location: Klickitat County Star Party
(45.8642°N, 120.6771°W)
Time: 04:57:08
(UTC-07:00)

ISS - Visible Passes

Search period start: 20 September 2020 00:00
Search period end: 30 September 2020 00:00
Orbit: 419 x 420 km, 51.6° (Epoch: 20 September)

Date Brightness Start Highest point End Pass type
(mag) Time Alt. Az. Time Alt. Az. Time Alt. Az.
20 Sep -3.6 20:23:26 10° WSW 20:26:48 73° NNW 20:28:46 23° NE visible
20 Sep -0.6 22:00:56 10° WNW 22:01:43 15° WNW 22:01:43 15° WNW visible
21 Sep -3.8 19:36:02 10° SW 19:39:23 77° SSE 19:42:47 10° ENE visible
21 Sep -2.3 21:13:20 10° WNW 21:16:18 33° NNW 21:16:18 33° NNW visible
22 Sep -2.6 20:25:43 10° W 20:28:56 40° NNW 20:30:48 21° NE visible
22 Sep -0.4 22:03:15 10° WNW 22:03:46 13° NW 22:03:46 13° NW visible
23 Sep -3.0 19:38:07 10° W 19:41:26 52° NNW 19:44:44 10° ENE visible
23 Sep -1.9 21:15:42 10° WNW 21:18:11 28° NNW 21:18:11 28° NNW visible
24 Sep -2.2 20:28:05 10° WNW 20:31:08 30° N 20:32:33 22° NE visible
24 Sep -0.2 22:05:19 10° NW 22:05:30 11° NW 22:05:30 11° NW visible
25 Sep -2.4 19:40:26 10° WNW 19:43:33 34° N 19:46:40 10° NE visible
25 Sep -1.7 21:17:50 10° WNW 21:19:50 26° NNW 21:19:50 26° NNW visible
26 Sep -2.3 20:30:18 10° WNW 20:33:20 30° N 20:34:08 26° NNE visible
27 Sep -2.2 19:42:43 10° WNW 19:45:43 29° N 19:48:26 12° ENE visible
27 Sep -1.5 21:19:45 10° WNW 21:21:23 25° NW 21:21:23 25° NW visible
28 Sep -2.9 20:32:16 10° NW 20:35:28 37° NNE 20:35:41 37° NNE visible
29 Sep -2.5 19:44:46 10° WNW 19:47:51 32° N 19:49:59 16° ENE visible
29 Sep -1.3 21:21:34 10° WNW 21:22:57 23° WNW 21:22:57 23° WNW visible
